EA7AZH-5 Weather Reports


time (UTC)temp
F
wind
direction
speed
knots
gust
knots
rain 1hr
in
rain 24hr
in
rain mn
in
humidity
%
barometer
mb
20260507044200 67 0.0 0.0 0.00 0.00 0.00 49 1008.8
20260507043159 67 0.0 0.0 0.00 0.00 0.00 49 1008.9
20260507042159 66 0.0 0.0 0.00 0.00 0.00 50 1008.8
20260507041204 66 0.0 0.0 0.00 0.00 0.00 49 1008.8
20260507040204 66 0.0 0.0 0.00 0.00 0.00 49 1008.6
20260507035159 67 0.0 0.0 0.00 0.00 0.00 49 1008.7
20260507034159 67 0.0 0.0 0.00 0.00 0.00 48 1008.6
20260507033159 67 0.0 0.0 0.00 0.00 0.00 49 1008.8
20260507032204 67 0.0 0.0 0.00 0.00 0.00 48 1008.8
20260507031204 67 0.0 0.0 0.00 0.00 0.00 48 1008.9
20260507030159 67 0.0 0.0 0.00 0.00 0.00 49 1008.9
20260507025159 67 0.0 0.0 0.00 0.00 0.00 48 1008.9
20260507024204 67 0.0 0.0 0.00 0.00 0.00 48 1009.0
20260507023159 67 0.0 0.0 0.00 0.00 0.00 49 1008.8
20260507022159 67 0.0 0.0 0.00 0.00 0.00 49 1008.8
20260507021204 67 0.0 0.0 0.00 0.00 0.00 50 1009.0
20260507020159 68 0.0 0.0 0.00 0.00 0.00 49 1009.0
20260507015159 67 0.0 0.0 0.00 0.00 0.00 50 1008.9
20260507014159 67 0.0 0.0 0.00 0.00 0.00 50 1009.0
20260507013159 67 0.0 0.0 0.00 0.00 0.00 50 1009.1
20260507012159 68 0.0 0.0 0.00 0.00 0.00 49 1008.9
20260507011159 67 0.0 0.0 0.00 0.00 0.00 50 1009.0
20260507010159 67 0.0 0.0 0.00 0.00 0.00 50 1009.0
20260507005159 67 0.0 0.0 0.00 0.00 0.00 51 1009.1
20260507004204 67 0.0 0.0 0.00 0.00 0.00 50 1009.2
20260507003159 67 0.0 0.0 0.00 0.00 0.00 52 1009.3
20260507002158 68 0.0 0.0 0.00 0.00 0.00 51 1009.1
20260507001158 68 0.0 0.0 0.00 0.00 0.00 51 1009.4
20260507000159 69 0.0 0.0 0.00 0.00 0.00 51 1009.6
20260506235158 69 0.0 0.0 0.00 0.00 0.00 53 1009.6
20260506234158 69 0.0 0.0 0.00 0.00 0.00 54 1009.8
20260506233159 69 0.0 0.0 0.00 0.00 0.00 54 1009.8
20260506232159 70 0.0 0.0 0.00 0.00 0.00 56 1010.0
20260506231159 70 0.0 0.0 0.00 0.00 0.00 57 1010.0
20260506230158 70 0.0 0.0 0.00 0.00 0.00 58 1009.9
20260506225204 69 0.0 0.0 0.00 0.00 0.00 62 1009.9
20260506224158 70 0.0 0.0 0.00 0.00 0.00 61 1009.9
20260506223158 70 0.0 0.0 0.00 0.00 0.00 61 1009.8
20260506222158 69 0.0 0.0 0.00 0.00 0.00 61 1009.9
20260506221204 69 0.0 0.0 0.00 0.00 0.00 61 1009.9
20260506220158 69 0.0 0.0 0.00 0.00 0.00 61 1009.9
20260506215158 71 0.0 0.0 0.00 0.00 0.00 59 1009.9
20260506214158 70 0.0 0.0 0.00 0.00 0.00 61 1009.9
20260506213158 69 0.0 0.0 0.00 0.00 0.00 62 1009.9
20260506212158 70 0.0 0.0 0.00 0.00 0.00 60 1009.9
20260506211203 70 0.0 0.0 0.00 0.00 0.00 61 1009.9
20260506210158 70 0.0 0.0 0.00 0.00 0.00 60 1009.8
20260506205158 69 0.0 0.0 0.00 0.00 0.00 61 1009.6
20260506204158 70 0.0 0.0 0.00 0.00 0.00 59 1009.6
20260506203158 69 0.0 0.0 0.00 0.00 0.00 61 1009.4
20260506202158 68 0.0 0.0 0.00 0.00 0.00 62 1009.4
20260506201158 69 0.0 0.0 0.00 0.00 0.00 62 1009.1
20260506200158 68 0.0 0.0 0.00 0.00 0.00 63 1009.0
20260506195203 69 0.0 0.0 0.00 0.00 0.00 62 1008.8
20260506194158 69 0.0 0.0 0.00 0.00 0.00 61 1008.6
20260506193158 69 0.0 0.0 0.00 0.00 0.00 61 1008.4
20260506192158 69 0.0 0.0 0.00 0.00 0.00 60 1008.2
20260506191203 69 0.0 0.0 0.00 0.00 0.00 63 1008.1
20260506190157 68 0.0 0.0 0.00 0.00 0.00 68 1008.1
20260506185158 71 0.0 0.0 0.00 0.00 0.00 63 1007.9
20260506184157 70 0.0 0.0 0.00 0.00 0.00 63 1007.9
20260506183202 71 0.0 0.0 0.00 0.00 0.00 63 1007.7
20260506182202 71 0.0 0.0 0.00 0.00 0.00 61 1007.6
20260506181158 71 0.0 0.0 0.00 0.00 0.00 60 1007.6
20260506180158 70 0.0 0.0 0.00 0.00 0.00 62 1007.7
20260506175157 71 0.0 0.0 0.00 0.00 0.00 60 1007.7
20260506174158 71 0.0 0.0 0.00 0.00 0.00 60 1007.8
20260506173158 71 0.0 0.0 0.00 0.00 0.00 61 1008.0
20260506172157 71 0.0 0.0 0.00 0.00 0.00 60 1008.1
20260506171158 70 0.0 0.0 0.00 0.00 0.00 61 1008.1
20260506170158 71 0.0 0.0 0.00 0.00 0.00 58 1008.2
20260506165157 72 0.0 0.0 0.00 0.00 0.00 56 1008.1
20260506164158 74 0.0 0.0 0.00 0.00 0.00 53 1008.0
20260506163157 74 0.0 0.0 0.00 0.00 0.00 53 1008.1
20260506162157 75 0.0 0.0 0.00 0.00 0.00 52 1008.1
20260506161157 76 0.0 0.0 0.00 0.00 0.00 50 1008.1
20260506160157 75 0.0 0.0 0.00 0.00 0.00 52 1008.0
20260506155157 75 0.0 0.0 0.00 0.00 0.00 51 1008.0
20260506154157 75 0.0 0.0 0.00 0.00 0.00 51 1008.1
20260506153157 75 0.0 0.0 0.00 0.00 0.00 51 1008.1
20260506152157 76 0.0 0.0 0.00 0.00 0.00 48 1008.1
20260506151157 77 0.0 0.0 0.00 0.00 0.00 47 1008.3
20260506150202 78 0.0 0.0 0.00 0.00 0.00 44 1008.3
20260506145202 78 0.0 0.0 0.00 0.00 0.00 41 1008.6
20260506144202 77 0.0 0.0 0.00 0.00 0.00 36 1008.7
20260506143157 79 0.0 0.0 0.00 0.00 0.00 33 1008.6
20260506142202 80 0.0 0.0 0.00 0.00 0.00 32 1008.8
20260506141157 79 0.0 0.0 0.00 0.00 0.00 33 1008.9
20260506140157 79 0.0 0.0 0.00 0.00 0.00 35 1009.1
20260506135157 80 0.0 0.0 0.00 0.00 0.00 33 1009.0
20260506134159 79 0.0 0.0 0.00 0.00 0.00 31 1009.0
20260506133202 79 0.0 0.0 0.00 0.00 0.00 34 1009.0
20260506132157 80 0.0 0.0 0.00 0.00 0.00 32 1008.9
20260506131157 81 0.0 0.0 0.00 0.00 0.00 29 1008.8
20260506130157 79 0.0 0.0 0.00 0.00 0.00 31 1008.9
20260506125157 80 0.0 0.0 0.00 0.00 0.00 30 1009.0
20260506124202 81 0.0 0.0 0.00 0.00 0.00 29 1008.9
20260506123156 79 0.0 0.0 0.00 0.00 0.00 31 1009.2
20260506122156 78 0.0 0.0 0.00 0.00 0.00 32 1009.3
20260506121156 78 0.0 0.0 0.00 0.00 0.00 35 1009.2
20260506120157 80 0.0 0.0 0.00 0.00 0.00 35 1009.2
20260506115157 79 0.0 0.0 0.00 0.00 0.00 34 1009.3
20260506114156 77 0.0 0.0 0.00 0.00 0.00 38 1009.3
20260506113157 78 0.0 0.0 0.00 0.00 0.00 36 1009.2
20260506112157 79 0.0 0.0 0.00 0.00 0.00 38 1009.2
20260506111156 78 0.0 0.0 0.00 0.00 0.00 38 1009.4
20260506110156 76 0.0 0.0 0.00 0.00 0.00 43 1009.3
20260506105156 76 0.0 0.0 0.00 0.00 0.00 45 1009.4
20260506104157 76 0.0 0.0 0.00 0.00 0.00 48 1009.5
20260506103156 73 0.0 0.0 0.00 0.00 0.00 46 1009.5
20260506102156 73 0.0 0.0 0.00 0.00 0.00 40 1009.6
20260506101201 74 0.0 0.0 0.00 0.00 0.00 38 1009.7
20260506100201 76 0.0 0.0 0.00 0.00 0.00 38 1009.6
20260506095156 75 0.0 0.0 0.00 0.00 0.00 38 1009.6
20260506094201 76 0.0 0.0 0.00 0.00 0.00 40 1009.7
20260506093156 74 0.0 0.0 0.00 0.00 0.00 42 1009.6
20260506092156 76 0.0 0.0 0.00 0.00 0.00 40 1009.5
20260506091201 76 0.0 0.0 0.00 0.00 0.00 38 1009.5
20260506090156 74 0.0 0.0 0.00 0.00 0.00 40 1009.5
20260506085156 75 0.0 0.0 0.00 0.00 0.00 39 1009.6
20260506084156 73 0.0 0.0 0.00 0.00 0.00 40 1009.5
20260506083156 74 0.0 0.0 0.00 0.00 0.00 38 1009.5
20260506082201 74 0.0 0.0 0.00 0.00 0.00 38 1009.3
20260506081201 75 0.0 0.0 0.00 0.00 0.00 37 1009.3
20260506080156 76 0.0 0.0 0.00 0.00 0.00 29 1009.3
20260506073156 77 0.0 0.0 0.00 0.00 0.00 26 1009.0
20260506072201 74 0.0 0.0 0.00 0.00 0.00 28 1009.0